Regional Weather Roundup
Issued by NWS

Home | Current Version | Previous Version | Graphics & Text | Print | Product List | Glossary On
Versions: 1 2 3 4 5 6 7 8 9 10 11 12 13 14 15 16 17 18 19 20 21 22 23 24 25 26 27 28 29 30 31 32 33 34 35 36 37 38 39 40 41 42 43 44 45 46 47 48 49 50
000
ASUS44 KMEG 251710
RWRTN
TENNESSEE HOURLY STATE WEATHER ROUNDUP
NATIONAL WEATHER SERVICE MEMPHIS TN
1200 PM CDT THU MAY 25 2017

TNZ002-004-019-021-049-052-054-088>092-251800-
WEST TENNESSEE

CITY           SKY/WX    TMP DP  RH WIND       PRES   REMARKS
MEMPHIS INTL   MOSUNNY   72  54  53 SW10G17   29.83R
NWS MEMPHIS      N/A     69 N/A N/A MISG        N/A
JACKSON        MOSUNNY   72  50  45 W14       29.80R
DYERSBURG        N/A    N/A N/A N/A MISG        N/A
UNION CITY     MOSUNNY   70  52  52 W9G16     29.77R
BOLIVAR        MOSUNNY   68  50  52 W12G18    29.81S
PARIS          PTSUNNY   70  54  56 W9G20     29.76R
HUNTINGDON     MOSUNNY   70  54  56 W9G20     29.77S
LEXINGTON      MOSUNNY   70  52  52 MISG      29.79R
SELMER         MOSUNNY   68  52  56 W8G16     29.81R
SAVANNAH       PTSUNNY   70  52  52 W10G21    29.81R
$$

TNZ008-025-027-028-033-062-065-066-251800-
NORTH MIDDLE TENNESSEE

CITY           SKY/WX    TMP DP  RH WIND       PRES   REMARKS
NASHVILLE      PTSUNNY   69  52  54 W16G26    29.74R
PORTLAND       PTSUNNY   66  55  68 W9G22     29.71R
CLARKSVILLE    PTSUNNY   69  52  54 NW15G26   29.73R
SMYRNA         PTSUNNY   68  53  58 W18G24    29.75R
COOKEVILLE     PTSUNNY   64  52  63 W12G17    29.71R
GALLATIN       CLOUDY    68  54  60 W8G15     29.74S
CROSSVILLE     CLOUDY    59  49  69 W20G30    29.73R
$$

TNZ061-075-076-078-094-096-097-251800-
SOUTH MIDDLE TENNESSEE

CITY           SKY/WX    TMP DP  RH WIND       PRES   REMARKS
FAYETTEVILLE   MOSUNNY   68  52  56 W16       29.78S
TULLAHOMA      PTSUNNY   64  52  63 SW15      29.78R
WINCHESTER     PTSUNNY   66  52  59 W12         N/A
MCMINNVILLE      N/A     66  54  63 W16       29.75R
COLUMBIA       MOSUNNY   68  52  56 W9G20     29.75S
SHELBYVILLE    PTSUNNY   68  50  52 W15G22    29.76R
$$

TNZ017-018-042-046-047-251800-
NORTHEAST TENNESSEE

CITY           SKY/WX    TMP DP  RH WIND       PRES   REMARKS
TRI CITIES     CLOUDY    57  51  80 SW14G25   29.65S
ELIZABETHTON   CLOUDY    55  52  88 W12G21    29.66R HAZE
$$

TNZ012-013-036-069-073-074-251800-
CENTRAL EAST TENNESSEE

CITY           SKY/WX    TMP DP  RH WIND       PRES   REMARKS
KNOXVILLE      CLOUDY    62  53  72 SW20G28   29.69S
OAK RIDGE      LGT RAIN  62  51  67 VRB7      29.70R
DOWNTOWN KNOXV CLOUDY    63  55  77 SW13      29.69S
GATLINBURG     CLOUDY    59  48  67 SW14      29.69S
MORRISTOWN     CLOUDY    61  54  77 W17G26    29.66S
JACKSBORO      CLOUDY    59  52  77 SW10G18   29.70R
$$

TNZ083-085-099-251800-
SOUTHEAST TENNESSEE

CITY           SKY/WX    TMP DP  RH WIND       PRES   REMARKS
CHATTANOOGA    PTSUNNY   67  50  54 SW12G20   29.76S
$$

SKY/WX REPORTED AS FAIR MEANS FEW OR NO CLOUDS BELOW
12 THOUSAND FEET.





USA.gov is the U.S. government's official web portal to all federal, state and local government web resources and services.